Regional Weather Roundup
Issued by NWS

Home | Current Version | Previous Version | Text Only | Print | Product List | Glossary On
Versions: 1 2 3 4 5 6 7 8 9 10 11 12 13 14 15 16 17 18 19 20 21 22 23 24 25 26 27 28 29 30 31 32 33 34 35 36 37 38 39 40 41 42 43 44 45 46 47 48 49 50
000
ASUS43 KMPX 291910
RWRMN
WEATHER ROUNDUP FOR MINNESOTA
NATIONAL WEATHER SERVICE TWIN CITIES/CHANHASSEN MN
200 PM CDT WED JUL 29 2015


NOTE: "FAIR" INDICATES FEW OR NO CLOUDS BELOW 12,000 FEET WITH NO
SIGNIFICANT WEATHER AND/OR OBSTRUCTIONS TO VISIBILITY. N/A MEANS
CURRENT SKY AND/OR WEATHER CONDITIONS ARE NOT AVAILABLE.

MNZ060>063-068>070-292000-
   Twin Cities Metro

CITY           SKY/WX    TMP DP  RH WIND       PRES   REMARKS
TWIN CITIES    MOSUNNY   80  53  39 W22G37    29.95R
ST PAUL        MOSUNNY   80  54  40 W25G38    29.94S
CRYSTAL        SUNNY     81  54  39 W23G33    29.93S
BLAINE         MOSUNNY   81  55  41 W17G32    29.93S
LAKEVILLE      SUNNY     77  55  47 W15G32    29.98R
EDEN PRAIRIE   SUNNY     80  55  42 W21G35    29.96R
SOUTH ST PAUL  MOSUNNY   81  53  38 W21G28    29.95R
LAKE ELMO      FAIR      79  55  44 W17G32    29.95S
$$
MNZ001>005-007-008-013>017-022>024-027-028-292000-
   Northwest Minnesota

CITY           SKY/WX    TMP DP  RH WIND       PRES   REMARKS
BEMIDJI        PTSUNNY   75  54  47 W32G44    29.79R
HALLOCK        MOSUNNY   77  52  41 W26G39    29.73R
ROSEAU         MOSUNNY   73  61  64 W20G30    29.69R
WARROAD        PTSUNNY   70  59  68 W15G26    29.68R
THIEF RVR FALL MOSUNNY  N/A N/A N/A W24G36    29.77R
CROOKSTON      MOSUNNY   79  55  44 NW30      29.81R
FOSSTON        MOSUNNY   75  52  43 W28G38    29.82R
DETROIT LAKES  MOSUNNY   73  54  49 W22G29    29.90R
MOORHEAD       MOSUNNY   75  54  46 W26G36    29.89R
PARK RAPIDS    MOSUNNY   78  53  41 W25G41    29.85R
MAHNOMEN       MOCLDY    74  56  52 W24G36    29.85R
$$
MNZ006-009>011-018-025>026-292000-
   North Central Minnesota

CITY           SKY/WX    TMP DP  RH WIND       PRES   REMARKS
BAUDETTE       CLOUDY    67  56  67 W17G25    29.67R
FLAG ISLAND    CLOUDY    66  57  72 W24G32    29.61R
INTL FALLS     LGT RAIN  63  59  87 W16G24    29.66R
WASKISH        CLOUDY    70  59  68 W22G39    29.72R
BIG FORK       PTSUNNY   66  57  72 SW10G17   29.75R
LONGVILLE      MOSUNNY   75  54  46 W15G36    29.81R
GRAND RAPIDS   CLOUDY    72  55  56 W14G24    29.79R
CRANE LAKE     CLOUDY    63  57  82 W9G20     29.69R
ORR            DRIZZLE   61  57  88 W9G16     29.70R
COOK           PTSUNNY   64  57  77 W14G25    29.74R
WALKER         MOCLDY    75  54  47 W21G37    29.80R
$$
MNZ012-019>021-037-292000-
   Northeast Minnesota

CITY           SKY/WX    TMP DP  RH WIND       PRES   REMARKS
DULUTH         PTSUNNY   72  55  55 W24G40    29.79R
ELY            CLOUDY    64  55  72 W22G28    29.71R
HIBBING        CLOUDY    69  55  60 W14G25    29.76R
EVELETH        PTSUNNY   66  54  63 W20G28    29.76S
DULUTH HARBOR  CLOUDY    73  57  56 SW14      29.78R
TWO HARBORS    MOSUNNY   75  61  60 W17G28    29.73S
SILVER BAY     CLOUDY    70  55  60 SW10G18   29.72R
GRAND MARAIS     N/A     59  51  75 W8        29.67R
G MARAIS ARPRT   N/A     64  54  68 SW10G22   29.69S
$$
MNZ029>031-032-039>041-046>048-054>057-064-292000-
   West Central Minnesota

CITY           SKY/WX    TMP DP  RH WIND       PRES   REMARKS
FERGUS FALLS   MOSUNNY   77  54  44 W30G39    29.91R
WHEATON        SUNNY     77  54  44 W22G33    29.96S
MORRIS         SUNNY     79  57  47 W18G35    29.95R
ALEXANDRIA     MOSUNNY   78  55  44 W20G35    29.94S
ELBOW LAKE     FAIR      77  56  47 W23G33    29.93S
WADENA         MOSUNNY   75  54  46 W23G35    29.88R
GLENWOOD       SUNNY     79  54  41 W23G37    29.96R
APPLETON       SUNNY     81  48  32 W25G33    29.98R
BENSON         SUNNY     81  52  36 NW23G32   29.97S
ORTONVILLE     SUNNY     81  50  34 W21G32    29.99R
MADISON        SUNNY     81  46  30 W25       30.01S
WILLMAR        FAIR      81  55  41 W21G33    29.99S
$$
MNZ033>034-036-042>043-049>051-058-059-292000-
   Central Minnesota

CITY           SKY/WX    TMP DP  RH WIND       PRES   REMARKS
ST CLOUD       MOSUNNY   80  55  42 W18G33    29.92R
SAUK CENTRE    FAIR      76  55  47 W26G37    29.94R
PAYNESVILLE    MOSUNNY   76  52  42 SW21G36   29.96S
AITKIN         PTSUNNY   75  54  46 W17G31    29.81R
PINE RIVER     MOSUNNY   75  54  46 W20G32    29.87R
BRAINERD       MOSUNNY   78  53  41 W18G35    29.85R
STAPLES        MOSUNNY   75  52  43 W25G41    29.87R
LONG PRAIRIE   FAIR      77  54  44 W20G35    29.93R
LITTLE FALLS   MOSUNNY   77  50  38 W24       29.90R
LITCHFIELD     SUNNY     79  55  44 W18G28    29.97S
BUFFALO        SUNNY     78  54  42 W15G28    29.96S
MAPLE LAKE     MOSUNNY   79  57  47 W17G29    29.95S
$$
MNZ037-044-045-052-053-292000-
   East Central Minnesota

CITY           SKY/WX    TMP DP  RH WIND       PRES   REMARKS
PRINCETON      MOSUNNY   81  54  39 W17G26    29.91S
MORA           SUNNY     75  52  43 W17G25    29.89R
CAMBRIDGE      SUNNY     81  59  47 W17G29    29.89R
RUSH CITY      SUNNY     78  54  43 W17G30    29.89R
MOOSE LAKE     CLOUDY    73  54  49 W13G26    29.81R
HINCKLEY       FAIR      77  55  47 W22G30    29.86S
CLOQUET        CLOUDY    73  54  49 W14G23    29.80R
MCGREGOR       PTSUNNY   77  54  44 W14       29.82R
$$
MNZ071>073-080-081-089-090-097-098-292000-
   Southwest Minnesota

CITY           SKY/WX    TMP DP  RH WIND       PRES   REMARKS
MONTEVIDEO     SUNNY     81  54  39 NW17G30   30.01S
GRANITE FALLS  SUNNY     79  56  45 W18G26    30.03S
CANBY          SUNNY     80  49  34 W21G29    30.05S
MARSHALL       SUNNY     81  52  36 W25G36    30.06S
REDWOOD FALLS  SUNNY     81  52  36 W23G35    30.01S
OLIVIA         SUNNY     75  54  46 W21G32    30.00S
PIPESTONE      SUNNY     79  54  41 W17G23    30.11S
WINDOM         SUNNY     79  55  44 W20G29    30.08S
WORTHINGTON    SUNNY     77  57  50 W15G24    30.10F
JACKSON        SUNNY     79  55  44 W18       30.10S
TRACY          SUNNY     79  55  44 W12G21    30.07S
SLAYTON        SUNNY     78  52  39 W22G28    30.10S
$$
MNZ065>067-074>077-082>085-091>093-292000-
   South Central Minnesota

CITY           SKY/WX    TMP DP  RH WIND       PRES   REMARKS
MANKATO        SUNNY     79  55  44 W23G31    30.02S
NEW ULM        SUNNY     79  54  41 W21G28    30.02S
ST JAMES       SUNNY     82  55  39 W22G30    30.05F
FAIRMONT       SUNNY     81  52  36 W16G26    30.07S
GLENCOE        SUNNY     79  58  47 W16G24    29.98F
FARIBAULT      SUNNY     79  57  47 W15G22    30.01S
OWATONNA       SUNNY     79  54  41 W22G30    30.02S
WASECA         SUNNY     77  57  50 W15G24    30.04S
ALBERT LEA     SUNNY     81  55  41 W14G21    30.04F
$$
MNZ078>079-086>088-094>096-292000-
   Southeast Minnesota

CITY           SKY/WX    TMP DP  RH WIND       PRES   REMARKS
ROCHESTER      SUNNY     78  58  49 W23G32    30.02S
RED WING       SUNNY     82  50  32 W26G37    29.94S
STANTON        SUNNY     80  53  39 W21G31    29.97F
DODGE CENTER   SUNNY     79  54  41 W22G30    30.02S
WINONA         SUNNY     81  50  34 W18G26    29.97S
AUSTIN         SUNNY     81  52  36 W20G29    30.04F
PRESTON        SUNNY     78  52  40 W24G35    30.04S
$$
ABBREVIATIONS USED IN REMARKS
   TC - TEMPERATURES IN CELSIUS
  WCI - WIND CHILL INDEX
   HX - HEAT INDEX
  VSB - VISIBILITY
$$



USA.gov is the U.S. government's official web portal to all federal, state and local government web resources and services.